Location: Borz?cin
(51.1714°N, 19.6030°E)
Time: 08:23:53
(UTC+00:00)

Cosmos 2219 Rocket - Pass Details

Date: 19 May 2025
Orbit: 828 x 844 km, 71.0° (Epoch: 16 June)

Event Time Altitude Azimuth Distance (km) Brightness Sun altitude
Rises 20:36:27 0° 330° (NNW) 3,403 7.4 -14.0°
Reaches altitude 10° 20:39:45 10° 349° (N) 2,462 5.9 -14.3°
Maximum altitude 20:43:32 18° 31° (NNE) 1,947 4.5 -14.5°
Drops below altitude 10° 20:47:19 10° 74° (ENE) 2,448 4.5 -14.8°
Sets 20:50:34 0° 93° (E) 3,376 5.0 -15.0°
